Lefor, ND

6:03 PM MDT on August 25, 2016 (GMT -0600)
Dickinson Municipal

Weather History for KDIK - November, 2012

Change the Weather History Date:

Monday, November 12, 2012

  Actual Average Record
Temperature  
Mean Temperature 17 °F 31 °F  
Max Temperature 30 °F 42 °F 75 °F (1999)
Min Temperature 4 °F 21 °F -13 °F (1911)
Degree Days  
Heating Degree Days 48 34  
Month to date heating degree days 394 372  
Since 1 July heating degree days 1331 1383  
Cooling Degree Days 0 0  
Month to date cooling degree days 0 0  
Year to date cooling degree days 591 419  
Moisture  
Dew Point 13 °F    
Average Humidity 78    
Maximum Humidity 87    
Minimum Humidity 69    
Precipitation  
Precipitation 0.00 in 0.03 in 0.90 in (2005)
Month to date precipitation 0.22 0.30  
Year to date precipitation 10.15 15.29  
Sea Level Pressure  
Sea Level Pressure 30.20 in    
Wind  
Wind Speed 11 mph (West)    
Max Wind Speed 16 mph    
Max Gust Speed -    
Visibility 10 miles    
Events      
T = Trace of Precipitation, MM = Missing Value Source: NWS Daily Summary

Daily Weather History Graph

Daily Weather History Graph

Search for Another Location

Airport or City:

Trip Planner

Search our weather history database for the weather conditions in past years. The results will help you decide how hot, cold, wet, or windy it might be!

Date:

Astronomy

Nov. 12, 2012 Rise Set
Actual Time 6:50 AM MST 4:19 PM MST
Civil Twilight 6:17 AM MST 4:52 PM MST
Nautical Twilight 5:40 AM MST 5:29 PM MST
Astronomical Twilight 5:05 AM MST 6:04 PM MST
Moon 5:15 AM MST (11/12) 3:28 PM MST (11/12)
Length of Visible Light 10h 35m
Length of Day
9h 29m
Waning Crescent, 2% of the Moon is Illuminated
Nov 12
Waning Crescent
Nov 13
New
Nov 20
First Quarter
Nov 28
Full
Dec 6
Last Quarter

Hourly Weather History & Observations

Time (MST) Temp. Windchill Dew Point Humidity Pressure Visibility Wind Dir Wind Speed Gust Speed Precip Events Conditions
12:56 AM 5.0 °F -10.8 °F 1.0 °F 84% 30.17 in 10.0 mi West 11.5 mph - N/A   Clear
1:56 AM 3.9 °F -9.4 °F -0.0 °F 84% 30.18 in 10.0 mi WNW 8.1 mph - N/A   Clear
2:56 AM 5.0 °F -10.8 °F 1.0 °F 84% 30.18 in 10.0 mi WNW 11.5 mph - N/A   Clear
3:56 AM 3.9 °F -13.0 °F -0.0 °F 84% 30.18 in 10.0 mi West 12.7 mph - N/A   Clear
5:56 AM 5.0 °F -13.0 °F 1.0 °F 84% 30.21 in 10.0 mi West 15.0 mph - N/A   Clear
6:56 AM 3.9 °F -3.4 °F -0.0 °F 84% 30.22 in 10.0 mi West 3.5 mph - N/A   Clear
7:56 AM 10.9 °F -1.8 °F 6.1 °F 81% 30.22 in 10.0 mi West 9.2 mph - N/A   Clear
8:56 AM 17.1 °F 3.6 °F 10.9 °F 77% 30.22 in 10.0 mi West 12.7 mph - N/A   Clear
9:56 AM 21.9 °F 8.7 °F 16.0 °F 78% 30.21 in 10.0 mi West 15.0 mph - N/A   Partly Cloudy
10:56 AM 25.0 °F 13.1 °F 18.0 °F 75% 30.21 in 10.0 mi West 13.8 mph - N/A   Partly Cloudy
11:56 AM 27.0 °F 15.6 °F 19.9 °F 75% 30.19 in 10.0 mi WSW 13.8 mph - N/A   Clear
12:56 PM 28.9 °F 17.3 °F 21.0 °F 72% 30.19 in 10.0 mi West 16.1 mph - N/A   Clear
1:56 PM 30.0 °F 20.5 °F 21.9 °F 72% 30.18 in 10.0 mi West 11.5 mph - N/A   Clear
2:56 PM 28.9 °F 19.2 °F 21.0 °F 72% 30.19 in 10.0 mi West 11.5 mph - N/A   Clear
3:56 PM 24.1 °F 16.0 °F 19.0 °F 81% 30.21 in 10.0 mi WSW 6.9 mph - N/A   Clear
4:56 PM 21.0 °F 12.4 °F 16.0 °F 81% 30.21 in 10.0 mi WSW 6.9 mph - N/A   Clear
5:56 PM 19.9 °F 11.1 °F 15.1 °F 81% 30.21 in 10.0 mi WSW 6.9 mph - N/A   Clear
6:56 PM 19.0 °F 10.0 °F 12.9 °F 77% 30.21 in 10.0 mi WSW 6.9 mph - N/A   Clear
7:56 PM 21.0 °F 9.9 °F 16.0 °F 81% 30.20 in 10.0 mi West 10.4 mph - N/A   Clear
8:56 PM 25.0 °F 14.8 °F 19.0 °F 78% 30.19 in 10.0 mi West 10.4 mph - N/A   Clear
9:56 PM 24.1 °F 15.2 °F 19.0 °F 81% 30.18 in 10.0 mi West 8.1 mph - N/A   Mostly Cloudy
10:56 PM 26.1 °F 17.6 °F 21.0 °F 81% 30.17 in 10.0 mi WSW 8.1 mph - N/A   Overcast
11:56 PM 25.0 °F 18.1 °F 19.9 °F 81% 30.17 in 10.0 mi WSW 5.8 mph - N/A   Overcast